Flag for Slovenia Weather past 2 weeks in Celje, Slovenia

Now
70 °F

Mild.


Feels Like: 71 °F
Forecast: 58 / 88 °F
Wind: 2 mph from West

Location: Celje

Current Time: Aug 28, 2015 at 9:38:59 AM

Latest Report: Aug 28, 2015 at 9:00 AM


Visibility: N/A

Pressure: 30.05 "Hg

Humidity: 79%

Dew point: 63 °F

Location of CeljeLocation

Historic Weather in Celje — Graph

°F

Celje temperature yesterday

Maximum temperature yesterday: 85 °F (at 5:00 PM)
Minimum temperature yesterday: 53 °F (at 6:00 AM)
Average temperature yesterday: 68 °F

Past Weeks' High & Low Weather Summary

 TemperatureHumidityPressure
High94 °F (Aug 13, 4:00 PM)99% (Aug 23, 7:00 AM)30.23 "Hg (Aug 23, 7:00 AM)
Low51 °F (Aug 23, 4:00 AM)33% (Aug 13, 4:00 PM)29.71 "Hg (Aug 16, 5:00 PM)
Average67 °F80%29.98 "Hg
* Reported Aug 13 8:00 AM — Aug 28 8:00 AM, Celje, Weather by CustomWeather, © 2015

Note: Actual official high and low records may vary slightly from our data, if they occured in-between our weather recording intervals... More about our weather records

Advertising

Celje weather history for previous 24 hours

 ConditionsComfort  
Time TempWeatherWind HumidityBarometerVisibility
8:00 AM
Fri, Aug 28
61 °FPassing clouds.No wind98%30.06 "Hg19 mi
7:00 AM55 °FPassing clouds.1 mph99%30.06 "Hg12 mi
5:00 AM54 °FClear.1 mph98%30.05 "Hg19 mi
4:00 AM56 °FCool.1 mph98%30.04 "HgN/A
3:00 AM57 °FCool.1 mph98%30.04 "HgN/A
2:00 AM59 °FCool.1 mph99%30.04 "HgN/A
1:00 AM59 °FCool.1 mph98%30.05 "HgN/A
10:00 PM
Thu, Aug 27
66 °FMild.No wind92%30.03 "HgN/A
9:00 PM69 °FMild.1 mph87%30.02 "HgN/A
8:00 PM75 °FPassing clouds.2 mph76%30.00 "Hg31 mi
7:00 PM79 °FWarm.2 mph67%29.98 "HgN/A
6:00 PM82 °FWarm.2 mph58%29.98 "HgN/A
5:00 PM85 °FWarm.1 mph47%29.98 "HgN/A
4:00 PM84 °FWarm.3 mph47%29.98 "HgN/A
3:00 PM83 °FPassing clouds.2 mph56%30.00 "Hg31 mi
2:00 PM81 °FPassing clouds.2 mph58%30.02 "Hg31 mi
1:00 PM79 °FWarm.2 mph61%30.03 "HgN/A
12:00 PM76 °FMild.1 mph63%30.06 "HgN/A
11:00 AM73 °FMild.1 mph70%30.07 "HgN/A
10:00 AM68 °FMild.1 mph79%30.09 "HgN/A
9:00 AM62 °FCool.1 mph89%30.10 "HgN/A
Weather by CustomWeather, © 2015

See weather overviewHow to use our weather pages